Location: 761 Underwood Rd, Vestal, NY 13850, USA
(42.0046°N, 76.0259°W)
Time: 08:16:30
(UTC-04:00)

ISS - Pass Details

Date: 23 March 2019
Orbit: 408 x 410 km, 51.6° (Epoch: 18 April)

Event Time Altitude Azimuth Distance (km) Brightness Sun altitude
Rises 19:51:13 0° 224° (SW) 2,323 0.6 -6.7°
Reaches altitude 10° 19:53:18 10° 219° (SW) 1,465 -0.5 -7.1°
Maximum altitude 19:56:32 55° 141° (SE) 497 -3.6 -7.7°
Drops below altitude 10° 19:59:46 10° 63° (ENE) 1,472 -1.5 -8.3°
Enters shadow 20:00:26 - 61° (ENE) 1,740 -1.1 -8.4°
